Weather History for KRBO - February, 2014

Change the Weather History Date:

Saturday, February 15, 2014

  Actual Average (KCRP) Record (KCRP)
Temperature  
Mean Temperature 62 °F 60 °F  
Max Temperature 78 °F 70 °F 91 °F (1990)
Min Temperature 45 °F 51 °F 25 °F (1895)
Degree Days  
Heating Degree Days 4 6  
Month to date heating degree days 106  
Since 1 July heating degree days 733  
Cooling Degree Days 0 2  
Month to date cooling degree days 23  
Year to date cooling degree days 53  
Growing Degree Days 12 (Base 50)    
Moisture  
Dew Point 52 °F    
Average Humidity 65    
Maximum Humidity 94    
Minimum Humidity 43    
Precipitation  
Precipitation 0.00 in 0.08 in 1.14 in (1983)
Month to date precipitation 0.97  
Year to date precipitation 2.51  
Snow  
Snow 0.00 in - - ()
Month to date snowfall  
Since 1 July snowfall  
Snow Depth -    
Sea Level Pressure  
Sea Level Pressure 30.08 in    
Wind  
Wind Speed 10 mph (ESE)    
Max Wind Speed 20 mph    
Max Gust Speed 26 mph    
Visibility 10 miles    
Events      
T = Trace of Precipitation, MM = Missing Value Source: NWS Daily Summary

Daily Weather History Graph

Daily Weather History Graph

Search for Another Location

Airport or City:

Trip Planner

Search our weather history database for the weather conditions in past years. The results will help you decide how hot, cold, wet, or windy it might be!

Date:

Astronomy

Feb. 15, 2014 Rise Set
Actual Time 7:08 AM CST 6:22 PM CST
Civil Twilight 6:44 AM CST 6:46 PM CST
Nautical Twilight 6:16 AM CST 7:13 PM CST
Astronomical Twilight 5:49 AM CST 7:40 PM CST
Moon 7:13 PM CST (2/15) 7:14 AM CST (2/15)
Length of Visible Light 12h 01m
Length of Day
11h 14m
Waxing Gibbous, 99% of the Moon is Illuminated
Feb 15
Waxing Gibbous
Feb 22
Last Quarter
Mar 1
New
Mar 8
First Quarter
Mar 16
Full

Hourly Weather History & Observations

Time (CST) Temp. Windchill Dew Point Humidity Pressure Visibility Wind Dir Wind Speed Gust Speed Precip Events Conditions
12:15 AM 63.1 °F - 48.6 °F 59% 30.04 in 10.0 mi NE 13.8 mph 20.7 mph N/A   Clear
12:35 AM 64.2 °F - 43.0 °F 46% 30.04 in 10.0 mi NE 12.7 mph 20.7 mph N/A   Clear
12:55 AM 63.0 °F - 41.2 °F 45% 30.04 in 10.0 mi NE 10.4 mph - N/A   Clear
1:15 AM 62.6 °F - 39.9 °F 43% 30.04 in 10.0 mi NE 10.4 mph - N/A   Clear
1:35 AM 61.5 °F - 40.1 °F 45% 30.05 in 10.0 mi NE 8.1 mph - N/A   Clear
1:55 AM 60.8 °F - 38.8 °F 44% 30.04 in 10.0 mi NE 9.2 mph - N/A   Clear
2:15 AM 59.5 °F - 38.7 °F 46% 30.05 in 10.0 mi ENE 6.9 mph - N/A   Clear
2:35 AM 55.2 °F - 38.5 °F 53% 30.04 in 10.0 mi NE 3.5 mph - N/A   Clear
2:55 AM 54.5 °F - 39.6 °F 57% 30.05 in 10.0 mi Calm Calm - N/A   Clear
3:15 AM 51.4 °F - 39.6 °F 64% 30.05 in 10.0 mi Calm Calm - N/A   Clear
3:35 AM 48.2 °F - 36.9 °F 65% 30.07 in 10.0 mi Calm Calm - N/A   Clear
3:55 AM 49.6 °F - 38.5 °F 65% 30.07 in 10.0 mi Calm Calm - N/A   Clear
4:15 AM 49.5 °F - 39.2 °F 68% 30.07 in 10.0 mi NNE 3.5 mph - N/A   Clear
4:35 AM 49.8 °F - 39.7 °F 68% 30.07 in 10.0 mi NNE 5.8 mph - N/A   Clear
4:55 AM 47.8 °F - 38.8 °F 71% 30.08 in 10.0 mi NNE 3.5 mph - N/A   Clear
5:15 AM 48.6 °F - 39.4 °F 71% 30.08 in 10.0 mi Calm Calm - N/A   Clear
5:35 AM 47.8 °F - 38.5 °F 70% 30.08 in 10.0 mi Calm Calm - N/A   Clear
5:55 AM 46.8 °F - 37.0 °F 69% 30.09 in 10.0 mi Calm Calm - N/A   Clear
6:15 AM 45.3 °F 42.3 °F 36.7 °F 72% 30.10 in 10.0 mi North 5.8 mph - N/A   Clear
6:35 AM 45.7 °F 44.4 °F 37.9 °F 74% 30.12 in 10.0 mi NNE 3.5 mph - N/A   Clear
6:55 AM 45.9 °F 44.6 °F 38.3 °F 75% 30.12 in 10.0 mi NE 3.5 mph - N/A   Clear
7:15 AM 48.6 °F - 39.4 °F 71% 30.12 in 10.0 mi NE 3.5 mph - N/A   Clear
7:35 AM 49.8 °F - 39.2 °F 67% 30.12 in 10.0 mi NE 5.8 mph - N/A   Clear
7:55 AM 54.1 °F - 40.1 °F 59% 30.13 in 10.0 mi ENE 8.1 mph - N/A   Clear
8:15 AM 56.8 °F - 41.7 °F 57% 30.12 in 10.0 mi ENE 10.4 mph - N/A   Clear
8:35 AM 59.9 °F - 43.9 °F 55% 30.13 in 10.0 mi East 12.7 mph - N/A   Clear
8:55 AM 62.6 °F - 45.7 °F 54% 30.13 in 10.0 mi East 12.7 mph - N/A   Clear
9:15 AM 65.7 °F - 47.8 °F 53% 30.14 in 10.0 mi East 16.1 mph - N/A   Clear
9:35 AM 67.8 °F - 50.2 °F 53% 30.15 in 10.0 mi East 17.3 mph - N/A   Clear
9:55 AM 69.6 °F - 51.8 °F 53% 30.16 in 10.0 mi ESE 18.4 mph - N/A   Clear
10:15 AM 70.9 °F - 52.2 °F 51% 30.16 in 10.0 mi ESE 16.1 mph - N/A   Clear
10:35 AM 71.8 °F - 52.2 °F 50% 30.16 in 10.0 mi ESE 17.3 mph 21.9 mph N/A   Clear
10:55 AM 73.0 °F - 52.2 °F 48% 30.17 in 10.0 mi East 13.8 mph 20.7 mph N/A   Clear
11:15 AM 73.8 °F - 52.9 °F 48% 30.16 in 10.0 mi ESE 15.0 mph 21.9 mph N/A   Clear
11:35 AM 74.5 °F - 54.1 °F 49% 30.16 in 10.0 mi ESE 13.8 mph 20.7 mph N/A   Clear
11:55 AM 74.8 °F - 55.0 °F 50% 30.15 in 10.0 mi ESE 13.8 mph 21.9 mph N/A   Clear
12:15 PM 75.7 °F - 55.4 °F 49% 30.14 in 10.0 mi ESE 16.1 mph 26.5 mph N/A   Clear
12:35 PM 75.4 °F - 55.8 °F 50% 30.13 in 10.0 mi SE 15.0 mph 23.0 mph N/A   Scattered Clouds
12:55 PM 75.6 °F - 56.3 °F 51% 30.11 in 10.0 mi ESE 16.1 mph 20.7 mph N/A   Scattered Clouds
1:15 PM 76.5 °F - 56.8 °F 51% 30.10 in 10.0 mi SE 17.3 mph 21.9 mph N/A   Scattered Clouds
1:35 PM 77.2 °F - 56.8 °F 49% 30.08 in 10.0 mi SE 17.3 mph 21.9 mph N/A   Scattered Clouds
1:55 PM 77.5 °F - 57.4 °F 50% 30.07 in 10.0 mi South 15.0 mph 19.6 mph N/A   Clear
2:15 PM 78.1 °F - 57.7 °F 49% 30.06 in 10.0 mi SE 13.8 mph 21.9 mph N/A   Clear
2:35 PM 77.9 °F - 58.3 °F 51% 30.06 in 10.0 mi SE 18.4 mph - N/A   Clear
2:55 PM 77.2 °F - 58.5 °F 52% 30.06 in 10.0 mi SSE 11.5 mph 23.0 mph N/A   Clear
3:15 PM 78.3 °F - 58.8 °F 51% 30.05 in 10.0 mi SE 16.1 mph 19.6 mph N/A   Scattered Clouds
3:35 PM 78.1 °F - 59.2 °F 52% 30.05 in 10.0 mi SE 15.0 mph 20.7 mph N/A   Clear
3:55 PM 77.9 °F - 59.4 °F 53% 30.04 in 10.0 mi SE 15.0 mph 18.4 mph N/A   Clear
4:15 PM 77.2 °F - 59.9 °F 55% 30.04 in 10.0 mi SE 13.8 mph - N/A   Clear
4:35 PM 76.8 °F - 59.9 °F 56% 30.04 in 10.0 mi SE 17.3 mph 20.7 mph N/A   Clear
4:55 PM 75.9 °F - 60.1 °F 58% 30.03 in 10.0 mi SE 17.3 mph 21.9 mph N/A   Clear
5:15 PM 74.5 °F - 60.6 °F 62% 30.03 in 10.0 mi SE 18.4 mph - N/A   Clear
5:35 PM 73.4 °F - 60.8 °F 65% 30.03 in 10.0 mi SE 19.6 mph 23.0 mph N/A   Clear
5:55 PM 71.8 °F - 61.3 °F 70% 30.03 in 10.0 mi SE 17.3 mph - N/A   Clear
6:15 PM 70.7 °F - 61.5 °F 73% 30.02 in 10.0 mi SE 17.3 mph - N/A   Clear
6:35 PM 69.6 °F - 61.7 °F 76% 30.03 in 10.0 mi SE 15.0 mph - N/A   Clear
6:55 PM 68.4 °F - 62.4 °F 81% 30.03 in 10.0 mi SE 15.0 mph - N/A   Clear
7:15 PM 67.5 °F - 62.2 °F 83% 30.04 in 10.0 mi ESE 13.8 mph 18.4 mph N/A   Clear
7:35 PM 66.7 °F - 62.1 °F 85% 30.05 in 10.0 mi ESE 11.5 mph - N/A   Scattered Clouds
7:55 PM 66.2 °F - 62.2 °F 87% 30.05 in 10.0 mi ESE 11.5 mph - N/A   Clear
8:15 PM 65.5 °F - 61.9 °F 88% 30.06 in 10.0 mi ESE 11.5 mph - N/A   Scattered Clouds
8:35 PM 64.9 °F - 61.9 °F 90% 30.06 in 10.0 mi SE 10.4 mph - N/A   Mostly Cloudy
8:55 PM 65.5 °F - 62.6 °F 90% 30.07 in 10.0 mi SE 13.8 mph - N/A   Overcast
9:15 PM 65.1 °F - 62.6 °F 92% 30.07 in 10.0 mi SE 11.5 mph - N/A   Scattered Clouds
9:35 PM 64.4 °F - 62.6 °F 94% 30.06 in 7.0 mi SE 9.2 mph - N/A   Scattered Clouds
9:55 PM 64.0 °F - 62.2 °F 94% 30.06 in 7.0 mi SE 10.4 mph - N/A   Scattered Clouds
10:15 PM 63.5 °F - 61.7 °F 94% 30.06 in 7.0 mi SE 9.2 mph - N/A   Clear
10:35 PM 63.3 °F - 61.7 °F 94% 30.06 in 10.0 mi SSE 9.2 mph - N/A   Clear
10:55 PM 63.5 °F - 61.7 °F 94% 30.05 in 10.0 mi SSE 9.2 mph - N/A   Clear
11:15 PM 63.5 °F - 61.7 °F 94% 30.05 in 10.0 mi SSE 9.2 mph - N/A   Clear
11:35 PM 63.5 °F - 61.7 °F 94% 30.05 in 10.0 mi SSE 10.4 mph - N/A   Clear
11:55 PM 63.1 °F - 61.3 °F 94% 30.05 in 10.0 mi SSE 9.2 mph - N/A   Clear